Location: Coll
(42.4728°N, 0.7714°E)
Time: 12:48:00
(UTC+00:00)

Meteor 1-31 Rocket - Pass Details

Date: 23 October 2020
Orbit: 521 x 546 km, 97.6° (Epoch: 30 November)

Event Time Altitude Azimuth Distance (km) Brightness Sun altitude
Rises 05:04:05 0° 8° (N) 2,722 6.4 -14.6°
Reaches altitude 10° 05:06:14 10° 4° (N) 1,826 5.5 -14.2°
Maximum altitude 05:10:06 58° 286° (WNW) 644 2.8 -13.5°
Drops below altitude 10° 05:13:57 10° 207° (SSW) 1,811 5.2 -12.8°
Sets 05:16:05 0° 203° (SSW) 2,697 6.2 -12.4°
